Location: Asheville, NC
(35.6000°N, 82.5500°W)
Time: 15:20:32
(UTC-05:00)

DOVE 4 - Pass Details

Date: 31 July 2018
Orbit: 588 x 803 km, 97.7° (Epoch: 14 December)

Event Time Altitude Azimuth Distance (km) Brightness Sun altitude
Rises 04:29:36 0° 33° (NNE) 2,971 ? -22.4°
Reaches altitude 10° 04:32:43 10° 56° (NE) 2,013 ? -21.9°
Maximum altitude 04:35:18 15° 92° (E) 1,656 ? -21.5°
Drops below altitude 10° 04:37:48 10° 129° (SE) 1,949 ? -21.2°
Enters shadow 04:40:13 - 149° (SSE) 2,651 ? -20.8°
